User: anonymous   Login
Location: Unspecified
(0.0000°N, 0.0000°E)
Time: 19:21:28
(UTC+00:00)
Language:

NNS O-32 - Orbit

View from above orbital plane
View from above orbital plane
View from above satellite
View from above satellite

Ground track
Ground track

The orbit data is extracted from the following two-line orbital elements,

1 19071U 88033B   19077.61642205 +.00000038 +00000-0 +59341-4 0  9997
2 19071 090.3643 296.2452 0188688 171.3576 199.5748 13.27621309496224
Epoch (UTC): 18 March 2019 14:47:38
Eccentricity: 0.0188688
inclination: 90.3643°
perigee height: 1013 km
apogee height: 1298 km
right ascension of ascending node: 296.2452°
argument of perigee: 171.3576°
revolutions per day: 13.27621309
mean anomaly at epoch: 199.5748°
orbit number at epoch: 49622

The dashed part of the orbit path shows where the satellite is in the earth's shadow,  

DLR